Location: ČR
(50.0000°N, 15.0000°E)
Time: 06:56:00
(UTC+02:00)

A-11 Canister half - Pass Details

Date: 19 March 2026
Orbit: 1514 x 1685 km, 47.2° (Epoch: 18 April)

Event Time Altitude Azimuth Distance (km) Brightness Sun altitude
Rises 20:42:34 0° 288° (WNW) 4,941 13.0 -24.0°
Reaches altitude 10° 20:47:07 10° 271° (W) 3,951 11.9 -24.6°
Maximum altitude 20:53:08 18° 234° (SW) 3,346 10.9 -25.4°
Drops below altitude 10° 20:59:09 10° 196° (SSW) 3,912 10.9 -26.2°
Enters shadow 21:01:16 - 187° (S) 4,326 11.1 -26.5°
Sets 21:03:39 0° 179° (S) 4,872 - -26.8°
